FW2222 Weather Reports


Display with metric or nautical units.
time (UTC)temp
F
wind
direction
speed
MPH
gust
MPH
rain 1hr
in
rain 24hr
in
rain mn
in
humidity
%
barometer
mb
20260506192113 58 140 3.0 5.0 0.05 0.22 0.22 79 1094.2
20260506191211 58 154 5.0 7.0 0.06 0.22 0.22 78 1094.3
20260506184212 59 167 6.0 10.0 0.07 0.18 0.18 80 1094.3
20260506183213 59 133 2.0 4.0 0.07 0.18 0.18 80 1094.4
20260506182212 59 157 5.0 6.0 0.07 0.17 0.17 80 1094.5
20260506181212 59 160 4.0 6.0 0.08 0.16 0.16 80 1094.8
20260506175212 59 134 3.0 8.0 0.08 0.11 0.11 80 1094.9
20260506174311 59 162 2.0 3.0 0.09 0.11 0.11 80 1094.9
20260506173316 59 156 5.0 7.0 0.10 0.11 0.11 81 1095.0
20260506172312 59 154 3.0 5.0 0.10 0.10 0.10 82 1095.3
20260506171312 59 156 4.0 5.0 0.08 0.08 0.08 83 1095.8
20260506170312 59 135 0.0 0.0 0.05 0.05 0.05 83 1096.0
20260506165313 60 202 0.0 0.0 0.04 0.04 0.03 83 1096.1
20260506164311 60 247 0.0 0.0 0.02 0.02 0.02 82 1096.1
20260506163313 61 247 0.0 1.0 0.01 0.01 0.00 82 1096.0
20260506162311 61 184 1.0 3.0 0.00 0.00 0.00 80 1096.0
20260506161313 62 198 3.0 5.0 0.00 0.00 0.00 80 1096.1
20260506160312 62 166 5.0 7.0 0.00 0.00 0.00 79 1096.1
20260506155315 63 156 5.0 9.0 0.00 0.00 0.00 78 1096.1
20260506154411 63 171 4.0 6.0 0.00 0.00 0.00 78 1096.3
20260506153411 63 157 4.0 6.0 0.00 0.00 0.00 76 1096.4
20260506152413 63 166 3.0 6.0 0.00 0.00 0.00 76 1096.6
20260506151413 63 169 4.0 6.0 0.00 0.00 0.00 76 1096.7
20260506150411 62 175 3.0 5.0 0.00 0.00 0.00 78 1096.9
20260506145415 62 175 2.0 4.0 0.00 0.00 0.00 79 1097.0
20260506144413 62 176 1.0 3.0 0.00 0.00 0.00 78 1096.8
20260506141612 63 174 5.0 7.0 0.00 0.00 0.00 77 1097.0
20260506140613 63 210 3.0 7.0 0.00 0.00 0.00 76 1096.6
20260506135712 64 157 5.0 7.0 0.00 0.00 0.00 76 1096.8
20260506134713 63 135 4.0 7.0 0.00 0.00 0.00 79 1096.5
20260506132712 61 112 0.0 2.0 0.00 0.00 0.00 82 1096.5
20260506131713 60 159 3.0 5.0 0.00 0.00 0.00 82 1096.3
20260506130713 59 157 2.0 4.0 0.00 0.00 0.00 84 1096.6
20260506124715 56 247 0.0 0.0 0.00 0.00 0.00 84 1097.0
20260506122811 54 247 0.0 0.0 0.00 0.00 0.00 82 1097.5
20260506115813 51 247 0.0 0.0 0.00 0.00 0.00 81 1097.4
20260506114815 50 247 0.0 0.0 0.00 0.00 0.00 82 1097.2
20260506113911 50 247 0.0 0.0 0.00 0.00 0.00 81 1097.2
20260506111911 49 247 0.0 0.0 0.00 0.00 0.00 81 1097.2
20260506110912 49 247 0.0 0.0 0.00 0.00 0.00 80 1097.1
20260506110011 48 247 0.0 0.0 0.00 0.00 0.00 80 1097.2
20260506104111 47 247 0.0 0.0 0.00 0.00 0.00 81 1097.3
20260506103112 47 247 0.0 0.0 0.00 0.00 0.00 81 1097.2
20260506102111 46 247 0.0 0.0 0.00 0.00 0.00 82 1097.3
20260506101113 46 247 0.0 0.0 0.00 0.00 0.00 81 1097.0
20260506100210 46 247 0.0 0.0 0.00 0.00 0.00 82 1096.8
20260506100114 46 247 0.0 0.0 0.00 0.00 0.00 81 1096.8
20260506095213 47 247 0.0 0.0 0.00 0.00 0.00 82 1096.9
20260506093213 47 247 0.0 0.0 0.00 0.00 0.00 81 1096.7
20260506092213 47 247 0.0 0.0 0.00 0.00 0.00 83 1096.9
20260506091214 47 247 0.0 0.0 0.00 0.00 0.00 83 1097.0
20260506090213 48 247 0.0 0.0 0.00 0.00 0.00 83 1096.8
20260506085213 48 247 0.0 0.0 0.00 0.00 0.00 83 1097.0
20260506085127 48 247 0.0 0.0 0.00 0.00 0.00 82 1097.0
20260506084111 48 247 0.0 0.0 0.00 0.00 0.00 82 1096.9
20260506083113 48 247 0.0 0.0 0.00 0.00 0.00 83 1096.9
20260506082112 49 247 0.0 0.0 0.00 0.00 0.00 83 1097.1
20260506070113 51 247 0.0 0.0 0.00 0.00 0.00 84 1097.3
20260506061011 53 247 0.0 0.0 0.00 0.00 0.00 82 1097.2
20260506045112 59 181 2.0 4.0 0.00 0.00 0.00 71 1097.5
20260506044113 60 157 1.0 4.0 0.00 0.00 0.00 71 1097.7
20260506043210 60 157 0.0 0.0 0.00 0.00 0.00 71 1097.6
20260506042212 60 112 1.0 2.0 0.00 0.00 0.00 70 1097.4
20260506041210 60 112 0.0 0.0 0.00 0.00 0.00 69 1097.6
20260506040211 61 126 3.0 6.0 0.00 0.00 0.00 69 1097.4
20260506035210 61 143 2.0 4.0 0.00 0.00 0.00 69 1097.6
20260506034212 62 157 0.0 1.0 0.00 0.00 0.00 68 1097.6
20260506034110 62 157 0.0 1.0 0.00 0.00 0.00 68 1097.6
20260506033109 62 157 0.0 1.0 0.00 0.00 0.00 66 1097.6
20260506032109 62 202 0.0 1.0 0.00 0.00 0.00 67 1097.5
20260506031110 62 210 1.0 3.0 0.00 0.00 0.00 67 1097.6
20260506030111 63 202 3.0 4.0 0.00 0.00 0.00 67 1097.5
20260506025111 63 202 0.0 0.0 0.00 0.00 0.00 66 1097.3
20260506024209 63 202 0.0 0.0 0.00 0.00 0.00 65 1097.5
20260506023224 63 157 0.0 1.0 0.00 0.00 0.00 68 1097.6
20260506022210 62 157 0.0 1.0 0.00 0.00 0.00 69 1097.7
20260506020310 62 157 0.0 0.0 0.00 0.00 0.00 69 1097.6
20260506015310 62 202 0.0 0.0 0.00 0.00 0.00 69 1097.4
20260506014311 62 202 0.0 0.0 0.00 0.00 0.00 69 1097.4
20260506012411 63 202 0.0 0.0 0.00 0.00 0.00 67 1097.3
20260506011508 64 202 0.0 0.0 0.00 0.00 0.00 65 1097.2
20260506010511 65 247 0.0 0.0 0.00 0.00 0.00 63 1097.1
20260506005609 66 247 0.0 0.0 0.00 0.00 0.00 62 1097.0
20260506004610 66 247 0.0 0.0 0.00 0.00 0.00 60 1096.9
20260506003611 66 202 2.0 2.0 0.00 0.00 0.00 60 1096.9
20260506002709 67 157 0.0 0.0 0.00 0.00 0.00 60 1096.9
20260506001711 67 55 0.0 2.0 0.00 0.00 0.00 59 1096.7
20260506000809 67 22 0.0 0.0 0.00 0.00 0.00 58 1096.6
20260505235810 68 346 3.0 6.0 0.00 0.00 0.00 56 1096.5
20260505234810 69 337 3.0 4.0 0.00 0.00 0.00 53 1096.3
20260505233909 70 338 4.0 9.0 0.00 0.00 0.00 49 1096.1
20260505233808 71 330 4.0 6.0 0.00 0.00 0.00 49 1096.1
20260505232811 72 14 0.0 0.0 0.00 0.00 0.00 47 1095.5
20260505231809 72 252 2.0 5.0 0.00 0.00 0.00 47 1095.1
20260505230909 72 187 5.0 10.0 0.00 0.00 0.00 47 1094.6
20260505225012 73 159 6.0 9.0 0.00 0.00 0.00 46 1094.5
20260505223109 74 166 10.0 15.0 0.00 0.00 0.00 44 1094.1
20260505222109 75 172 3.0 5.0 0.00 0.00 0.00 41 1094.1
20260505221110 75 168 5.0 6.0 0.00 0.00 0.00 41 1093.9
20260505220110 76 173 7.0 14.0 0.00 0.00 0.00 37 1093.7
20260505215110 77 165 7.0 10.0 0.00 0.00 0.00 35 1093.8
20260505214112 77 153 5.0 8.0 0.00 0.00 0.00 35 1093.7
20260505213207 77 95 7.0 14.0 0.00 0.00 0.00 35 1093.3
20260505213108 77 150 3.0 6.0 0.00 0.00 0.00 35 1093.7
20260505204211 78 184 1.0 4.0 0.00 0.00 0.00 35 1093.5
20260505202311 78 143 9.0 11.0 0.00 0.00 0.00 33 1093.6
20260505200410 79 161 7.0 10.0 0.00 0.00 0.00 34 1093.5
20260505195509 79 173 9.0 17.0 0.00 0.00 0.00 34 1093.6
20260505194509 79 177 7.0 15.0 0.00 0.00 0.00 33 1093.9
20260505193509 79 136 6.0 10.0 0.00 0.00 0.00 32 1093.8